Location: Conjunto Santa Maria
(19.9513°S, 43.9599°W)
Time: 13:16:26
(UTC+00:00)

Cosmos 489 Rocket - Pass Details

Date: 21 January 2021
Orbit: 952 x 983 km, 74.0° (Epoch: 04 March)

Event Time Altitude Azimuth Distance (km) Brightness Sun altitude
Rises 22:38:41 0° 355° (N) 3,647 7.3 -13.2°
Reaches altitude 10° 22:41:14 10° 358° (N) 2,701 6.6 -13.7°
Maximum altitude 22:47:25 64° 78° (ENE) 1,065 4.4 -15.0°
Drops below altitude 10° 22:53:35 10° 158° (SSE) 2,706 6.9 -16.3°
Sets 22:56:08 0° 161° (SSE) 3,653 7.6 -16.8°
